Regional Weather Roundup
Issued by NWS

Home | Current Version | Previous Version | Graphics & Text | Print | Product List | Glossary On
Versions: 1 2 3 4 5 6 7 8 9 10 11 12 13 14 15 16 17 18 19 20 21 22 23 24 25 26 27 28 29 30 31 32 33 34 35 36 37 38 39 40 41 42 43 44 45 46 47 48 49 50
549
ASUS43 KIND 190059
RWRIN

WEATHER ROUNDUP FOR INDIANA
NATIONAL WEATHER SERVICE INDIANAPOLIS IN
800 PM EST THU JAN 18 2018

NOTE: "FAIR" INDICATES FEW OR NO CLOUDS BELOW 12,000 FEET WITH NO
SIGNIFICANT WEATHER AND/OR OBSTRUCTIONS TO VISIBILITY.

* - STATION DOES NOT REPORT WEATHER SUCH AS PRECIPITATION OR FOG.

+ - STATION NOT QUALITY CONTROLLED BY THE NATIONAL WEATHER SERVICE.
    USE DATA WITH CAUTION...ESPECIALLY DEWPOINT AND RELATIVE
    HUMIDITY OBSERVATIONS.

INZ001>003-010>013-019-020-190200-
NORTHWEST INDIANA

CITY           SKY/WX    TMP DP  RH WIND       PRES   REMARKS
GARY /AIRPORT/ CLEAR     30  21  69 SW15      30.05R WCI  19
KNOX *+        FAIR      27  18  69 SW10G18   30.08R WCI  17
MONTICELLO +   FAIR      26  14  61 SW15      30.10S WCI  13

$$

LMZ046-743>745-190200-
SOUTHERN LAKE MICHIGAN

STATION/POSITION TIME  TEMP    WIND        PRES    WAVE
                       AIR SEA DIR/SP/G            HT
                 (UTC) (F)     (DEG/KT/KT) (MB)    (FT)
BURNS HARBOR     0040   29     210/ 13/ 19 1017.9R
MICHIGAN CITY    0030   30     200/ 21/ 25   N/A

$$

INZ004-005-014>016-021>024-190200-
NORTH CENTRAL INDIANA

CITY           SKY/WX    TMP DP  RH WIND       PRES   REMARKS
GOSHEN         FAIR      24  14  65 SW14G24   30.07R WCI  12
PERU/GRISSOM   FAIR      24  15  68 SW16      30.10S WCI  11
SOUTH BEND     FAIR      25  17  72 SW17      30.06R WCI  12

$$

INZ006>009-017-018-025>027-190200-
NORTHEAST INDIANA

CITY           SKY/WX    TMP DP  RH WIND       PRES   REMARKS
FORT WAYNE     FAIR      25  14  63 SW13      30.09S WCI  14
KENDALLVILLE + FAIR      24  15  66 SW14G21   30.04S WCI  12

$$

INZ028-029-035-036-043>045-051>053-190200-
WEST CENTRAL INDIANA

CITY           SKY/WX    TMP DP  RH WIND       PRES   REMARKS
LAFAYETTE      FAIR      25  15  66 SW12      30.13S WCI  14
TERRE HAUTE    FAIR      24  13  62 S12       30.20F WCI  13

$$

INZ030>032-037>040-046>048-054>057-064-065-190200-
CENTRAL INDIANA

CITY           SKY/WX    TMP DP  RH WIND       PRES   REMARKS
INDIANAPOLIS   FAIR      26  13  57 SW14      30.17F WCI  14
-EAGLE CREEK   FAIR      26  13  57 SW14G20   30.16S WCI  14
MT COMFORT *+  FAIR      27  16  63 SW10G17   30.16F WCI  17
SHELBYVILLE    FAIR      25  12  58 S12       30.19S WCI  14

$$

INZ033-034-041-042-049-050-058-059-190200-
EAST CENTRAL INDIANA

CITY           SKY/WX    TMP DP  RH WIND       PRES   REMARKS
MUNCIE         FAIR      29  13  51 SW13      30.12S WCI  19
RICHMOND +     FAIR      25  14  63 SW15      30.16F WCI  12

$$

INZ060-061-067>069-081>083-085>088-190200-
SOUTHWEST INDIANA

CITY           SKY/WX    TMP DP  RH WIND       PRES   REMARKS
EVANSVILLE     FAIR      27  13  55 SW12      30.30S WCI  17
HUNTINGBURG +  FAIR      23  13  65 S9        30.29S WCI  13

$$

INZ062-063-066-070>080-084-089>092-190200-
SOUTH CENTRAL AND SOUTHEAST INDIANA

CITY           SKY/WX    TMP DP  RH WIND       PRES   REMARKS
BLOOMINGTON    FAIR      26  11  52 SW13      30.21S WCI  15
FRENCH LICK *+ FAIR      27   9  46 S8        30.26F WCI  18
MADISON *+     FAIR      27  12  54 S9        30.28R WCI  17

$$





USA.gov is the U.S. government's official web portal to all federal, state and local government web resources and services.